Regional Weather Roundup
Issued by NWS Newport/Morehead, NC

Current Version | Previous Version | Text Only | Print | Product List | Glossary On
Versions: 1 2 3 4 5 6 7 8 9 10 11 12 13 14 15 16 17 18 19 20 21 22 23 24 25 26 27 28 29 30 31 32 33 34 35 36 37 38 39 40 41 42 43 44 45 46 47 48 49 50
000
ASUS42 KMHX 182122
RWRMHX
WEATHER ROUNDUP FOR EASTERN NORTH CAROLINA
NATIONAL WEATHER SERVICE NEWPORT/MOREHEAD CITY NC
500 PM EDT FRI APR 18 2014

NOTE: "FAIR" INDICATES FEW OR NO CLOUDS BELOW 12,000 FEET
WITH NO SIGNIFICANT WEATHER AND/OR OBSTRUCTIONS TO VISIBILITY

NCZ015>017-031-032-045>047-102-103-182200-
NORTH COAST

CITY           SKY/WX    TMP DP  RH WIND       PRES   REMARKS
EDENTON        MOSUNNY   56  45  64 NE9       30.30F
ELIZABETH CITY MOSUNNY   52  41  66 NE14      30.32F
KITTY HAWK     CLOUDY    49  43  80 N12G17    30.30F
MANTEO         CLOUDY    51  44  76 NE13      30.31F

$$

NCZ045>047-081-094-103-104-182200-
CENTRAL COAST

CITY           SKY/WX    TMP DP  RH WIND       PRES   REMARKS
FRISCO         PTSUNNY   53  47  79 NE15G26   30.27F
SWANQUARTER      N/A     57 N/A N/A N8G21     30.24F

$$

NCZ095-097-098-100-101-182200-
SOUTHERN COAST

CITY           SKY/WX    TMP DP  RH WIND       PRES   REMARKS
BEAUFORT       CLOUDY    60  48  64 NE13G21   30.23F
CEDAR ISLAND     N/A     57 N/A N/A NE21      30.30F
JACKSONVILLE   CLOUDY    64  49  57 NE14G22   30.22F
NEWPORT          N/A     59  48  67 N8G17       N/A
PINEY ISLAND   CLOUDY    59  48  67 NE14G22   30.25F
WILMINGTON     LGT RAIN  63  52  67 NE10      30.22F


$$

NCZ011>013-027>030-043-044-078>080-089-090>093-098-182200-
COASTAL PLAIN

CITY           SKY/WX    TMP DP  RH WIND       PRES   REMARKS
AHOSKIE        PTSUNNY   59  42  53 NE8       30.29F
CLINTON        CLOUDY    64  47  55 NE3       30.25F
ELIZABETHTOWN  DRIZZLE   61  50  66 CALM      30.23S
GOLDSBORO      CLOUDY    63  46  54 NE8       30.24F
GREENVILLE     CLOUDY    64  45  48 NE8       30.26F
HAVELOCK       PTSUNNY   60  47  61 E13       30.26F
KENANSVILLE    CLOUDY    62  46  53 NE7       30.25F
KINSTON        PTSUNNY   64  45  48 NE10      30.25F
NEW BERN       CLOUDY    63  46  54 NE10      30.27F
RICHLANDS      CLOUDY    64  46  52 N12       30.24F
ROANOKE RAPIDS NOT AVBL
ROCKY MOUNT    PTSUNNY   62  42  47 N10       30.27F
WASHINGTON     PTSUNNY   63  46  54 NE7       30.27F
WHITEVILLE     CLOUDY    59  51  76 NE10      30.22R

$$

AMZ130-135-150-152-154-156-158-170-250-252-270-ANZ085-086-088-633-658-670-182200-
MARINE OBSERVATIONS

STATION/POSITION TIME  TEMP    WIND        PRES    WAVE   SWELL
                       AIR SEA DIR/SP/G            HT/PER HT/PER
                 (UTC) (F)     (DEG/KT/KT) (MB)    (FT/S) (FT/S)
CHESAPEAKE LIGHT 2100   44      50/ 13/ 15 1027.9
BUOY 44014       2100   47 49   10/ 16/ 17 1026.0    8/ 9   7/ 9
DUCK             2100   46 52   10/ 15/ 18 1025.7
2E DUCK          2100      49                N/A     7/10   3/11
OREGON INLET     2100   49 52  360/ 12/ 19 1025.8
BUOY 44095       2100      48                N/A     8/11   3/11
HATTERAS CG      2100   51 56   20/ 18/ 24 1024.9
DIAMOND BUOY     NOT AVBL
CAPE LOOKOUT     2100   56      30/ 24/ 27 1023.6
BEAUFORT LAB     2100   58 60   10/ 18/ 19 1023.1
30 SE NEW RIVER  2100   58 66   40/ 21/ 25 1023.2    7/ 9   3/ 9
5 SE WRIGHTSVILL 2100   59 59   40/ 17/ 19 1022.7
FRYING PAN BUOY  2100   62 64   70/ 23/ 29 1021.2    8/ 6   3/ 9
BUOY 41001       NOT AVBL
BUOY 41002       NOT AVBL
BUOY 41004       NOT AVBL

$$



USA.gov is the U.S. government's official web portal to all federal, state and local government web resources and services.